Overview Statistics Trail Chart Weather Telemetry Raw packets
 

This is the latest recevied weather packets stored in our database for station/object EB1BWO-11. If no packets are shown the sender has not sent any weather packets the latest 10 day(s).

<< 5 6 7 8 9 10 11 >>
Time Temp. Humidity Pressure Rain* Wind** Luminosity Snow
1788468154 22.22° C 61% 1023.8 hPa - - - -
1788467254 22.22° C 61% 1023.7 hPa - - - -
1788466354 22.22° C 62% 1023.6 hPa - - - -
1788465454 22.78° C 60% 1023.6 hPa - - - -
1788464553 23.33° C 59% 1023.6 hPa - - - -
1788463653 23.89° C 59% 1023.5 hPa - - - -
1788462753 24.44° C 58% 1023.4 hPa - - - -
1788461853 24.44° C 58% 1023.4 hPa - - - -
1788460953 25° C 58% 1023.4 hPa - - - -
1788460053 25.56° C 58% 1023.3 hPa - - - -
1788459153 26.11° C 56% 1023.5 hPa - - - -
1788458252 26.67° C 56% 1023.6 hPa - - - -
1788457351 26.67° C 56% 1023.7 hPa - - - -
1788457089 27.22° C 55% 1023.9 hPa - - - -
1788456189 27.78° C 55% 1023.7 hPa - - - -
1788455289 28.33° C 55% 1023.8 hPa - - - -
1788454389 27.78° C 56% 1023.9 hPa - - - -
1788453489 27.78° C 56% 1024 hPa - - - -
1788452588 28.33° C 55% 1023.8 hPa - - - -
1788451688 28.89° C 56% 1023.9 hPa - - - -
1788450788 28.89° C 55% 1023.9 hPa - - - -
1788449888 30° C 55% 1024 hPa - - - -
1788448988 30.56° C 55% 1024 hPa - - - -
1788448088 31.67° C 54% 1024 hPa - - - -
1788447188 35° C 48% 1023.9 hPa - - - -

* Rain since midnight (hover to see other rain measurements)
** Current wind speed in m/s (hover to see current wind gust speed)